Location: Barton Flats Campground
(34.1722°N, 116.8753°W)
Time: 19:25:24
(UTC+00:00)

Meteor 1-31 Rocket - Pass Details

Date: 08 August 2020
Orbit: 520 x 547 km, 97.6° (Epoch: 01 October)

Event Time Altitude Azimuth Distance (km) Brightness Sun altitude
Rises 12:13:22 0° 17° (NNE) 2,691 7.1 -10.5°
Reaches altitude 10° 12:15:32 10° 21° (NNE) 1,791 6.2 -10.1°
Maximum altitude 12:19:20 55° 100° (E) 642 3.5 -9.4°
Drops below altitude 10° 12:23:04 10° 179° (S) 1,763 5.2 -8.7°
Sets 12:25:11 0° 183° (S) 2,643 6.0 -8.3°
